| time (UTC) | temp C | wind direction | speed KPH | gust KPH | rain 1hr cm | rain 24hr cm | rain mn cm | humidity % | barometer mb |
| 20260510224607 | 15 | 121 | 0.0 | 4.8 | 0.00 | 0.08 | 0.08 | 70 | 1013.4 |
| 20260510223057 | 15 | 170 | 1.6 | 4.8 | 0.00 | 0.08 | 0.08 | 71 | 1013.3 |
| 20260510221600 | 15 | 133 | 3.2 | 6.4 | 0.00 | 0.08 | 0.08 | 70 | 1013.3 |
| 20260510220056 | 15 | 168 | 1.6 | 6.4 | 0.00 | 0.08 | 0.08 | 71 | 1013.5 |
| 20260510214554 | 15 | 186 | 1.6 | 9.7 | 0.00 | 0.08 | 0.08 | 70 | 1013.6 |
| 20260510213105 | 15 | 227 | 3.2 | 8.0 | 0.00 | 0.08 | 0.08 | 73 | 1013.4 |
| 20260510211634 | 15 | 203 | 1.6 | 8.0 | 0.00 | 0.08 | 0.08 | 74 | 1013.3 |
| 20260510210051 | 15 | 242 | 1.6 | 6.4 | 0.00 | 0.08 | 0.08 | 74 | 1013.2 |
| 20260510204551 | 15 | 285 | 0.0 | 4.8 | 0.00 | 0.08 | 0.08 | 74 | 1013.0 |
| 20260510203050 | 15 | 244 | 3.2 | 8.0 | 0.00 | 0.08 | 0.08 | 75 | 1013.0 |
| 20260510201553 | 15 | 293 | 1.6 | 8.0 | 0.00 | 0.08 | 0.08 | 77 | 1012.8 |
| 20260510200055 | 15 | 196 | 1.6 | 4.8 | 0.00 | 0.08 | 0.08 | 81 | 1012.9 |
| 20260510194552 | 15 | 165 | 1.6 | 4.8 | 0.00 | 0.20 | 0.08 | 83 | 1012.9 |
| 20260510193047 | 15 | 107 | 1.6 | 4.8 | 0.00 | 0.20 | 0.08 | 84 | 1013.2 |
| 20260510191614 | 14 | 228 | 0.0 | 4.8 | 0.00 | 0.20 | 0.08 | 85 | 1013.4 |
| 20260510190059 | 14 | 228 | 0.0 | 4.8 | 0.03 | 0.20 | 0.08 | 86 | 1013.5 |
| 20260510184549 | 14 | 189 | 1.6 | 6.4 | 0.03 | 0.41 | 0.08 | 86 | 1013.4 |
| 20260510183053 | 13 | 186 | 1.6 | 4.8 | 0.05 | 0.41 | 0.08 | 89 | 1013.3 |
| 20260510181545 | 13 | 193 | 1.6 | 4.8 | 0.05 | 0.41 | 0.08 | 88 | 1013.5 |
| 20260510180051 | 13 | 213 | 1.6 | 3.2 | 0.05 | 0.38 | 0.05 | 88 | 1013.4 |
| 20260510174546 | 13 | 190 | 1.6 | 4.8 | 0.05 | 0.66 | 0.05 | 86 | 1013.5 |
| 20260510173042 | 13 | 245 | 0.0 | 4.8 | 0.03 | 0.64 | 0.03 | 85 | 1013.5 |
| 20260510171542 | 14 | 188 | 1.6 | 6.4 | 0.03 | 0.64 | 0.03 | 82 | 1013.3 |
| 20260510170141 | 15 | 227 | 1.6 | 8.0 | 0.00 | 0.61 | 0.00 | 80 | 1013.2 |
| 20260510164539 | 15 | 256 | 1.6 | 11.3 | 0.00 | 0.81 | 0.00 | 76 | 1013.2 |
| 20260510163038 | 15 | 184 | 3.2 | 11.3 | 0.00 | 0.81 | 0.00 | 75 | 1013.2 |
| 20260510161537 | 15 | 317 | 1.6 | 6.4 | 0.00 | 0.81 | 0.00 | 73 | 1013.1 |
| 20260510160036 | 16 | 204 | 1.6 | 6.4 | 0.00 | 0.81 | 0.00 | 72 | 1012.8 |
| 20260510154550 | 16 | 227 | 1.6 | 11.3 | 0.00 | 0.86 | 0.00 | 72 | 1012.9 |
| 20260510153034 | 16 | 219 | 3.2 | 8.0 | 0.00 | 0.86 | 0.00 | 72 | 1012.7 |
| 20260510151507 | 16 | 187 | 3.2 | 9.7 | 0.00 | 0.86 | 0.00 | 70 | 1012.7 |
| 20260510150005 | 16 | 278 | 3.2 | 9.7 | 0.00 | 0.86 | 0.00 | 75 | 1012.6 |
| 20260510144502 | 15 | 239 | 1.6 | 8.0 | 0.00 | 0.99 | 0.00 | 74 | 1012.3 |
| 20260510143002 | 16 | 190 | 4.8 | 12.9 | 0.00 | 0.99 | 0.00 | 72 | 1012.3 |
| 20260510141600 | 15 | 240 | 3.2 | 9.7 | 0.00 | 0.99 | 0.00 | 74 | 1012.3 |
| 20260510140057 | 15 | 153 | 3.2 | 8.0 | 0.00 | 0.99 | 0.00 | 77 | 1012.2 |
| 20260510134554 | 15 | 123 | 3.2 | 9.7 | 0.00 | 1.04 | 0.00 | 79 | 1012.1 |
| 20260510133051 | 14 | 220 | 3.2 | 8.0 | 0.00 | 1.04 | 0.00 | 81 | 1012.1 |
| 20260510131548 | 13 | 262 | 1.6 | 12.9 | 0.00 | 1.04 | 0.00 | 81 | 1011.9 |
| 20260510130046 | 13 | 148 | 3.2 | 8.0 | 0.00 | 1.04 | 0.00 | 82 | 1011.9 |
| 20260510124554 | 13 | 221 | 3.2 | 9.7 | 0.00 | 1.04 | 0.00 | 83 | 1012.0 |
| 20260510123039 | 12 | 200 | 1.6 | 6.4 | 0.00 | 1.04 | 0.00 | 87 | 1011.8 |
| 20260510121536 | 11 | 215 | 4.8 | 11.3 | 0.00 | 1.04 | 0.00 | 92 | 1011.5 |
| 20260510120032 | 11 | 219 | 0.0 | 4.8 | 0.00 | 1.04 | 0.00 | 95 | 1011.4 |
| 20260510114529 | 11 | 157 | 0.0 | 4.8 | 0.00 | 1.04 | 0.00 | 96 | 1011.4 |
| 20260510113026 | 10 | 156 | 1.6 | 4.8 | 0.00 | 1.04 | 0.00 | 96 | 1011.0 |
| 20260510111524 | 10 | 156 | 0.0 | 3.2 | 0.00 | 1.04 | 0.00 | 95 | 1010.9 |
| 20260510110036 | 10 | 156 | 0.0 | 1.6 | 0.00 | 1.04 | 0.00 | 95 | 1010.9 |
| 20260510104522 | 10 | 156 | 0.0 | 1.6 | 0.00 | 1.07 | 0.00 | 95 | 1010.7 |
| 20260510103022 | 10 | 156 | 0.0 | 3.2 | 0.00 | 1.07 | 0.00 | 95 | 1010.6 |
| 20260510101521 | 10 | 156 | 0.0 | 1.6 | 0.00 | 1.07 | 0.00 | 95 | 1010.4 |
| 20260510100021 | 10 | 156 | 0.0 | 1.6 | 0.00 | 1.07 | 0.00 | 95 | 1010.4 |
| 20260510094539 | 9 | 156 | 1.6 | 4.8 | 0.00 | 1.07 | 0.00 | 95 | 1010.4 |
| 20260510093020 | 9 | 154 | 1.6 | 4.8 | 0.00 | 1.07 | 0.00 | 95 | 1010.3 |
| 20260510091523 | 9 | 189 | 0.0 | 3.2 | 0.00 | 1.07 | 0.00 | 95 | 1010.2 |
| 20260510090019 | 9 | 284 | 0.0 | 3.2 | 0.00 | 1.07 | 0.00 | 94 | 1010.0 |
| 20260510084518 | 9 | 284 | 0.0 | 1.6 | 0.00 | 1.07 | 0.00 | 94 | 1009.8 |
| 20260510083015 | 9 | 284 | 0.0 | 1.6 | 0.00 | 1.07 | 0.00 | 95 | 1009.6 |
| 20260510081517 | 10 | 284 | 0.0 | 1.6 | 0.00 | 1.07 | 0.00 | 95 | 1009.8 |
| 20260510080015 | 10 | 284 | 0.0 | 1.6 | 0.00 | 1.07 | 0.00 | 95 | 1009.8 |
| 20260510074513 | 10 | 284 | 0.0 | 1.6 | 0.00 | 1.07 | 0.00 | 95 | 1009.7 |
| 20260510073017 | 10 | 284 | 1.6 | 3.2 | 0.00 | 1.07 | 0.00 | 95 | 1010.0 |
| 20260510071512 | 10 | 284 | 0.0 | 3.2 | 0.00 | 1.07 | 0.00 | 95 | 1010.5 |
| 20260510070020 | 10 | 284 | 0.0 | 1.6 | 0.00 | 1.07 | 0.00 | 95 | 1010.8 |
| 20260510064510 | 10 | 284 | 0.0 | 1.6 | 0.00 | 1.07 | 0.00 | 94 | 1010.9 |
| 20260510063009 | 10 | 284 | 0.0 | 1.6 | 0.00 | 1.07 | 0.00 | 94 | 1010.9 |
| 20260510061508 | 10 | 284 | 0.0 | 6.4 | 0.00 | 1.07 | 0.00 | 95 | 1010.8 |
| 20260510060009 | 10 | 144 | 0.0 | 4.8 | 0.00 | 1.07 | 0.00 | 95 | 1010.4 |
| 20260510054506 | 10 | 144 | 0.0 | 3.2 | 0.00 | 1.07 | 0.00 | 95 | 1010.4 |
| 20260510053023 | 10 | 144 | 0.0 | 3.2 | 0.00 | 1.07 | 0.00 | 95 | 1010.6 |
| 20260510051504 | 10 | 144 | 0.0 | 4.8 | 0.00 | 1.07 | 0.00 | 95 | 1010.6 |
| 20260510050005 | 10 | 238 | 0.0 | 1.6 | 0.00 | 1.07 | 0.00 | 95 | 1010.4 |
| 20260510044559 | 10 | 238 | 0.0 | 4.8 | 0.00 | 1.07 | 0.00 | 94 | 1010.3 |
| 20260510043104 | 10 | 136 | 0.0 | 4.8 | 0.00 | 1.07 | 0.00 | 94 | 1010.0 |
| 20260510041555 | 10 | 178 | 1.6 | 4.8 | 0.00 | 1.07 | 0.00 | 94 | 1009.8 |
| 20260510040053 | 10 | 130 | 0.0 | 4.8 | 0.00 | 1.07 | 0.00 | 94 | 1009.9 |
| 20260510034552 | 10 | 113 | 1.6 | 8.0 | 0.00 | 1.07 | 1.07 | 94 | 1009.9 |
| 20260510033101 | 10 | 138 | 1.6 | 4.8 | 0.00 | 1.07 | 1.07 | 94 | 1009.9 |
| 20260510031553 | 10 | 150 | 1.6 | 3.2 | 0.00 | 1.07 | 1.07 | 94 | 1009.9 |
| 20260510030051 | 10 | 150 | 1.6 | 4.8 | 0.00 | 1.07 | 1.07 | 94 | 1009.9 |
| 20260510024551 | 10 | 150 | 1.6 | 6.4 | 0.00 | 1.07 | 1.07 | 94 | 1009.8 |
| 20260510023049 | 10 | 148 | 0.0 | 3.2 | 0.00 | 1.07 | 1.07 | 94 | 1009.9 |
| 20260510021552 | 10 | 191 | 1.6 | 6.4 | 0.00 | 1.07 | 1.07 | 94 | 1010.0 |
| 20260510020049 | 9 | 150 | 0.0 | 1.6 | 0.00 | 1.07 | 1.07 | 92 | 1010.0 |
| 20260510014548 | 9 | 150 | 0.0 | 3.2 | 0.00 | 1.07 | 1.07 | 92 | 1009.8 |
| 20260510013051 | 9 | 150 | 0.0 | 0.0 | 0.00 | 1.07 | 1.07 | 91 | 1009.7 |
| 20260510011551 | 10 | 150 | 0.0 | 1.6 | 0.00 | 1.07 | 1.07 | 91 | 1009.5 |
| 20260510010046 | 10 | 150 | 0.0 | 1.6 | 0.00 | 1.07 | 1.07 | 90 | 1009.4 |
| 20260510004545 | 10 | 150 | 0.0 | 3.2 | 0.00 | 1.07 | 1.07 | 90 | 1009.2 |
| 20260510003045 | 11 | 150 | 0.0 | 3.2 | 0.00 | 1.07 | 1.07 | 89 | 1009.2 |
| 20260510001644 | 11 | 150 | 0.0 | 0.0 | 0.00 | 1.07 | 1.07 | 88 | 1009.2 |
| 20260510000050 | 11 | 150 | 0.0 | 4.8 | 0.00 | 1.07 | 1.07 | 88 | 1009.0 |
| 20260509234543 | 12 | 150 | 1.6 | 4.8 | 0.00 | 1.07 | 1.07 | 87 | 1008.7 |
| 20260509233043 | 12 | 152 | 1.6 | 3.2 | 0.00 | 1.07 | 1.07 | 86 | 1008.6 |
| 20260509231544 | 12 | 188 | 0.0 | 6.4 | 0.00 | 1.07 | 1.07 | 86 | 1008.5 |
| 20260509230041 | 12 | 164 | 3.2 | 8.0 | 0.00 | 1.07 | 1.07 | 84 | 1008.3 |